Weather in Antipino

Russia / Tyumen Oblast     57°49′21″N   66°33′35″E
temp.,
°C
wind,
m/s
gust,
m/s
humid.,
%
clouds,
%
prec.,
mm/h
press.,
hPa
HPBL,
m
6 march, sat
sat623:00−7sw259384 0.3 997104
02:00−8wsw3593100 0.0 99698
05:00−11w499497 0.0 998242
08:00−13w5129293 0.0 1000407
11:00−10w6128276 0.0 1002676
14:00−7w6117757 0.0 10031193
17:00−7wsw5108276 0.1 1004911
20:00−9sw3109485 0.1 1005446
7 march, sun
sun723:00−11wsw499383 0.3 1007310
02:00−15wsw499333 0.0 1008240
05:00−18wsw369633 0.0 1011111
08:00−19sw23950 0.0 101264
11:00−13sw24900 0.0 1012266
14:00−10s238357 0.0 1011485
17:00−10ese249178 0.0 1008306
20:00−10ene3696100 0.4 1005272
8 march, mon
mon823:00−10nne3695100 1.3 1002263
02:00−11nnw4895100 0.9 1001358
05:00−13nw499499 1.1 1003368
08:00−18w489797 0.0 1005215
11:00−14wsw359290 0.1 1007328
14:00−11sw368789 0.0 1008612
17:00−10ssw368895 0.0 1008671
20:00−12sse31094100 0.1 1007399
9 march, tue
tue923:00−12s4994100 0.1 1006337
02:00−11s41095100 0.2 1004397
05:00−7s61393100 0.4 1002638
08:00−6ssw61293100 0.2 1001802
11:00−5sw5886100 0.4 1001795
14:00−3wsw4678100 0.1 1002978
17:00−4w3884100 0.2 1003541
20:00−10w348923 0.0 100580
10 march, wed
wed1023:00−13wnw229420 0.0 100720
02:00−14sw119496 0.0 100720
05:00−13ssw229798 0.1 100838
08:00−13wsw3895100 0.2 1008276
11:00−12wsw3693100 0.3 1008367
14:00−9wsw4786100 0.0 1008769
17:00−10wsw4787100 0.1 1008648
20:00−15w369498 0.1 1009118